Location: Plymouth
(43.7490°N, 87.9770°W)
Time: 06:50:57
(UTC-05:00)

Daily predictions for brighter satellites

Satellite Brightness Start Highest point End
(mag) Time Altitude Azimuth Time Altitude Azimuth Time Altitude Azimuth
Timation 1 Rocket 4.4 18:51:37 10° NNW 18:57:37 79° ENE 19:03:35 10° SSE
Cosmos 2056 Rocket 4.0 18:53:45 10° NNW 18:59:11 72° WSW 19:04:34 10° S
SL-16 R/B 2.2 18:56:53 10° SSW 19:02:34 82° ESE 19:08:18 10° NNE
SAR-Lupe-4 3.7 19:00:31 10° SSE 19:04:00 55° ENE 19:07:32 10° N
Cosmos 1766 3.3 19:01:24 10° S 19:05:18 66° E 19:09:17 10° NNE
Cosmos 1378 3.1 19:03:19 10° N 19:07:04 79° E 19:10:48 10° S
Resurs 01 Rocket 2.4 19:03:16 10° SE 19:07:12 32° ENE 19:11:09 10° N
HJ-1C 4.4 19:07:58 10° SE 19:10:52 27° ENE 19:13:46 10° N
USA 215 4.0 19:09:00 10° ENE 19:14:46 33° SE 19:20:31 10° S
Cosmos 2219 Rocket 4.4 19:11:03 10° WSW 19:15:43 26° NW 19:20:26 10° N
CZ-2C R/B 4.5 19:12:47 10° SSW 19:17:10 32° W 19:21:27 10° NNW
COSMO-SKYMED 1 3.0 19:15:52 10° N 19:20:12 68° WNW 19:24:30 10° SSW
Meteor 1-28 Rocket 3.2 19:18:26 10° NNE 19:22:08 58° E 19:25:47 10° S
Nadezhda 4 Rocket 4.3 19:17:01 10° N 19:22:59 43° ENE 19:28:51 10° SE
Helios 1B rocket 3.1 19:19:45 10° NNE 19:23:29 33° E 19:27:12 10° SSE
FREGAT/IRIS 2.6 19:20:57 10° SSE 19:24:00 62° ENE 19:27:04 10° N
Abrixas 3.4 19:22:21 10° SSW 19:25:04 32° SE 19:26:59 16° E
Cosmos 1072 Rocket 4.5 19:23:15 10° S 19:29:21 89° WNW 19:35:30 10° N
H-2A R/B 4.1 19:28:07 14° ESE 19:30:17 21° ENE 19:33:14 10° NNE
Cosmos 1092 Rocket 4.5 19:26:12 10° N 19:31:55 37° ENE 19:37:33 10° SE
Cosmos 1805 3.2 19:28:38 10° S 19:32:30 60° E 19:36:24 10° NNE
Cosmos 1346 3.4 19:30:03 10° N 19:32:55 42° ENE 19:35:46 10° SSE
CZ-4B DEB 4.0 19:31:57 17° ESE 19:33:31 24° ENE 19:36:12 10° NNE
Aureole 2 Rocket 4.4 19:30:16 10° SW 19:34:24 41° WNW 19:38:26 10° N
GPS 2-04 Rocket1 4.4 19:32:53 10° SSW 19:35:09 16° SSE 19:36:40 13° SE
TELKOM 3 3.1 19:34:02 10° WNW 19:36:59 66° NNE 19:38:02 27° E
Gbstr 26 Del rocket 4.2 19:33:24 10° S 19:37:06 26° SE 19:39:48 17° E
Cosmos 1943 Rocket 3.7 19:33:24 10° N 19:37:16 19° NE 19:39:37 15° ENE
Cosmos 1766 Rocket 3.6 19:33:59 10° N 19:38:23 83° W 19:42:43 10° S
Cosmos 1076 Rocket 3.9 19:34:06 10° NNW 19:38:25 67° W 19:42:43 10° S
Cosmos 1953 2.2 19:36:02 10° S 19:40:00 77° E 19:44:00 10° NNE
Meteor 1-29 3.4 19:37:55 10° NNE 19:41:16 40° E 19:44:34 10° S
Cosmos 2369 Rocket 2.8 19:36:14 10° NNW 19:41:30 38° ENE 19:45:20 17° ESE
NOAA 12 4.3 19:37:17 10° S 19:42:31 75° WSW 19:47:50 10° NNW
Cosmos 1943 3.9 19:39:20 10° SSE 19:44:11 30° ESE 19:49:00 10° NE
Cosmos-2242 3.0 19:43:55 10° S 19:48:17 83° E 19:52:42 10° N
Cosmos 1603 3.7 19:44:29 10° SSW 19:50:12 77° ESE 19:55:59 10° NNE
NOSS 3-2 (A) 4.2 19:44:57 10° SW 19:50:59 56° NW 19:57:37 10° NNE
Cosmos 2151 4.0 19:47:56 10° NNE 19:51:29 25° ENE 19:52:06 24° E
Cosmos 1733 3.8 19:51:34 10° SSE 19:55:06 34° E 19:58:37 10° NNE
Cosmos 1452 Rocket 4.3 19:50:24 10° NNW 19:55:31 53° WSW 20:00:36 10° S
Cosmos 1470 3.0 19:53:19 10° SSE 19:57:01 44° E 20:00:44 10° NNE
Cosmos 839 Rocket 4.5 19:51:51 10° NNW 19:59:38 56° NE 20:03:47 23° ESE
Cosmos 1674 2.6 19:59:39 10° N 20:03:32 68° E 20:06:20 18° SSE
ASTEX 1 3.4 19:58:55 10° NNE 20:03:46 56° E 20:08:33 10° S
Cosmos 2034 Rocket 4.3 19:58:12 10° SSW 20:04:27 72° W 20:10:49 10° N
Cosmos 1500 Rocket 3.4 20:06:33 10° N 20:11:00 78° E 20:14:49 14° SSE
Cosmos 1842 Rocket 3.4 20:08:16 10° S 20:12:34 72° E 20:16:56 10° NNE
Cosmos 1420 Rocket 4.4 20:10:25 10° NNW 20:15:41 64° WSW 20:20:55 10° S
CENTAUR R/B 2.5 20:13:16 10° SSW 20:19:11 60° ESE 20:25:52 10° NE
ATLAS 5 CENTAUR R/B 3.2 20:16:27 10° WSW 20:21:03 40° NW 20:26:03 10° NNE
ERBS 3.9 20:20:30 10° NNW 20:23:13 26° NNE 20:23:13 26° NNE
Meteor 1-16 Rocket 4.3 20:22:42 33° SE 20:24:28 46° E 20:29:32 10° NNE
ALOS 2.4 20:20:32 11° S 20:24:57 75° WSW 20:29:40 10° NNW
Helios 1A 4.3 20:23:23 10° S 20:27:22 40° W 20:31:22 10° NNW
ISS -3.0 20:24:42 10° SW 20:27:24 58° SW 20:27:24 58° SW
Meteor 1-11 4.3 20:25:24 10° N 20:31:07 56° ENE 20:32:39 43° SE
Cosmos 1627 Rocket 4.4 20:28:14 10° N 20:34:27 71° E 20:37:44 30° SSE
Cosmos 1048 Rocket 4.4 20:30:42 10° SSW 20:35:57 64° WNW 20:41:10 10° NNE
SL-8 R/B 3.6 20:36:50 10° WSW 20:41:38 84° NNW 20:42:21 64° NE
Envisat 3.5 20:42:35 41° NE 20:42:35 41° NE 20:46:45 10° N
Resurs 01 Rocket 3.7 20:39:57 10° SSW 20:43:40 26° W 20:47:26 10° NW
Cosmos 1328 4.0 20:44:04 10° NNW 20:47:47 70° WNW 20:47:47 70° WNW
Cosmos 1174 4.0 20:44:07 10° SW 20:48:25 71° WSW 20:48:25 71° WSW
CZ-2D R/B 4.5 20:50:59 31° SW 20:52:11 41° W 20:55:54 10° NNW
SL-14 R/B 4.4 20:49:51 10° N 20:52:22 36° N 20:52:22 36° N
Cosmos 158 Rocket 4.0 20:49:19 10° SSW 20:54:10 70° WNW 20:59:03 10° NNE
USA 215 3.3 20:53:08 18° NE 20:58:08 77° NW 21:04:40 10° WSW
GP-B 4.0 21:02:46 10° N 21:07:03 48° W 21:08:05 39° WSW
Cosmos 2279 Rocket 3.8 21:09:41 64° S 21:10:44 86° E 21:16:59 10° N
ERS-1 Rocket 3.3 21:15:36 62° NNW 21:15:36 62° NNW 21:19:48 10° NNW
H-2A R/B 4.2 21:23:11 20° N 21:23:11 20° N 21:24:42 10° N
Cosmos 1943 Rocket 2.3 21:16:06 10° NNW 21:21:09 71° NW 21:21:09 71° NW
Gbstr 26 Del rocket 4.0 21:18:51 10° WSW 21:22:26 52° W 21:22:26 52° W
Cosmos 1655 Rocket 4.3 21:17:49 10° NNW 21:23:57 62° W 21:25:31 47° SW
Cosmos 2369 Rocket 3.5 21:20:24 10° NW 21:25:27 34° WSW 21:27:10 28° SW
CZ-3A R/B 4.4 20:53:54 10° SSW 21:26:51 56° SE 21:27:53 54° ESE
Cosmos 1943 4.3 21:22:43 10° SW 21:28:02 42° WNW 21:33:23 10° NNE
CENTAUR R/B 4.0 22:04:33 10° WSW 22:10:16 34° NW 22:16:41 10° NNE
USA 215 4.5 22:40:32 35° NNW 22:40:35 35° NNW 22:46:22 10° W
